Time,TemperatureF,DewpointF,PressureIn,WindDirection,WindDirectionDegrees,WindSpeedMPH,WindSpeedGustMPH,Humidity,HourlyPrecipIn,Conditions,Clouds,dailyrainin,SoftwareType,DateUTC
2013-09-25 00:01:00,49.7,44.4,29.94,NW,315,0.0,0.0,82,0.00,,,0.00,WUHU216HW,2013-09-25 04:01:00,
2013-09-25 00:06:00,49.7,44.0,29.94,NW,315,0.0,0.0,81,0.00,,,0.00,WUHU216HW,2013-09-25 04:06:00,
2013-09-25 00:11:00,49.7,43.4,29.94,NW,315,0.0,0.0,79,0.00,,,0.00,WUHU216HW,2013-09-25 04:11:00,
2013-09-25 00:16:00,49.7,43.7,29.94,NW,315,0.0,0.0,80,0.00,,,0.00,WUHU216HW,2013-09-25 04:16:00,
2013-09-25 00:21:00,49.7,43.7,29.94,NW,315,0.0,0.0,80,0.00,,,0.00,WUHU216HW,2013-09-25 04:21:00,
2013-09-25 00:26:00,49.7,43.4,29.94,NW,315,0.0,0.0,79,0.00,,,0.00,WUHU216HW,2013-09-25 04:26:00,
2013-09-25 00:32:00,49.7,43.4,29.94,NW,315,0.0,0.0,79,0.00,,,0.00,WUHU216HW,2013-09-25 04:32:00,
2013-09-25 00:37:00,49.7,43.7,29.94,NW,315,0.0,0.0,80,0.00,,,0.00,WUHU216HW,2013-09-25 04:37:00,
2013-09-25 00:42:00,49.7,44.4,29.94,NW,315,0.0,0.0,82,0.00,,,0.00,WUHU216HW,2013-09-25 04:42:00,
2013-09-25 00:47:00,49.7,43.7,29.94,NW,315,0.0,0.0,80,0.00,,,0.00,WUHU216HW,2013-09-25 04:47:00,
2013-09-25 00:51:00,49.7,43.7,29.94,NW,315,0.0,0.0,80,0.00,,,0.00,WUHU216HW,2013-09-25 04:51:00,
2013-09-25 00:56:00,49.5,43.6,29.94,NW,315,0.0,0.0,80,0.00,,,0.00,WUHU216HW,2013-09-25 04:56:00,
2013-09-25 01:01:00,49.5,43.6,29.94,NW,315,0.0,0.2,80,0.00,,,0.00,WUHU216HW,2013-09-25 05:01:00,
2013-09-25 01:06:00,49.5,43.6,29.94,NW,315,0.0,0.2,80,0.00,,,0.00,WUHU216HW,2013-09-25 05:06:00,
2013-09-25 01:11:00,49.5,43.6,29.94,NW,315,0.0,0.0,80,0.00,,,0.00,WUHU216HW,2013-09-25 05:11:00,
2013-09-25 01:17:00,49.5,43.2,29.94,NW,315,0.0,0.0,79,0.00,,,0.00,WUHU216HW,2013-09-25 05:17:00,
2013-09-25 01:21:00,49.3,43.4,29.94,NW,315,0.0,0.0,80,0.00,,,0.00,WUHU216HW,2013-09-25 05:21:00,
2013-09-25 01:26:00,49.3,43.4,29.94,NW,315,0.0,0.0,80,0.00,,,0.00,WUHU216HW,2013-09-25 05:26:00,
2013-09-25 01:32:00,49.1,43.5,29.94,NW,315,0.0,0.0,81,0.00,,,0.00,WUHU216HW,2013-09-25 05:32:00,
2013-09-25 01:37:00,49.1,43.5,29.94,NW,315,0.0,0.4,81,0.00,,,0.00,WUHU216HW,2013-09-25 05:37:00,
2013-09-25 01:42:00,49.1,43.5,29.94,NW,315,0.0,0.4,81,0.00,,,0.00,WUHU216HW,2013-09-25 05:42:00,
2013-09-25 01:47:00,49.3,43.7,29.94,NW,315,0.0,0.0,81,0.00,,,0.00,WUHU216HW,2013-09-25 05:47:00,
2013-09-25 01:51:00,49.3,44.3,29.94,NW,315,0.0,0.9,83,0.00,,,0.00,WUHU216HW,2013-09-25 05:51:00,
2013-09-25 01:56:00,49.3,44.0,29.94,NW,315,0.0,0.9,82,0.00,,,0.00,WUHU216HW,2013-09-25 05:56:00,
2013-09-25 02:01:00,49.1,43.8,29.94,NW,315,0.2,0.2,82,0.00,,,0.00,WUHU216HW,2013-09-25 06:01:00,
2013-09-25 02:06:00,49.1,43.8,29.94,NW,315,0.0,0.2,82,0.00,,,0.00,WUHU216HW,2013-09-25 06:06:00,
2013-09-25 02:11:00,49.1,43.8,29.94,NW,315,0.2,0.4,82,0.00,,,0.00,WUHU216HW,2013-09-25 06:11:00,
2013-09-25 02:16:00,49.3,44.0,29.94,WNW,293,0.4,1.1,82,0.00,,,0.00,WUHU216HW,2013-09-25 06:16:00,
2013-09-25 02:21:00,49.5,44.2,29.94,WNW,293,0.2,1.1,82,0.00,,,0.00,WUHU216HW,2013-09-25 06:21:00,
2013-09-25 02:26:00,49.5,44.2,29.94,WNW,293,0.0,0.4,82,0.00,,,0.00,WUHU216HW,2013-09-25 06:26:00,
2013-09-25 02:32:00,49.7,44.0,29.94,WNW,293,0.0,0.4,81,0.00,,,0.00,WUHU216HW,2013-09-25 06:32:00,
2013-09-25 02:36:00,49.7,44.0,29.94,WNW,293,0.0,0.0,81,0.00,,,0.00,WUHU216HW,2013-09-25 06:36:00,
2013-09-25 02:41:00,49.5,43.6,29.94,WNW,293,0.0,0.0,80,0.00,,,0.00,WUHU216HW,2013-09-25 06:41:00,
2013-09-25 02:46:00,49.3,43.4,29.94,WNW,293,0.0,0.0,80,0.00,,,0.00,WUHU216HW,2013-09-25 06:46:00,
2013-09-25 02:51:00,49.1,43.5,29.94,WNW,293,0.0,0.0,81,0.00,,,0.00,WUHU216HW,2013-09-25 06:51:00,
2013-09-25 02:56:00,49.0,43.4,29.93,WNW,293,0.0,0.0,81,0.00,,,0.00,WUHU216HW,2013-09-25 06:56:00,
2013-09-25 03:01:00,49.0,43.7,29.93,WNW,293,0.0,0.0,82,0.00,,,0.00,WUHU216HW,2013-09-25 07:01:00,
2013-09-25 03:06:00,49.0,43.4,29.93,WNW,293,0.0,0.0,81,0.00,,,0.00,WUHU216HW,2013-09-25 07:06:00,
2013-09-25 03:11:00,49.0,43.7,29.93,WNW,293,0.0,0.0,82,0.00,,,0.00,WUHU216HW,2013-09-25 07:11:00,
2013-09-25 03:16:00,48.8,43.2,29.93,WNW,293,0.0,0.0,81,0.00,,,0.00,WUHU216HW,2013-09-25 07:16:00,
2013-09-25 03:21:00,48.8,43.5,29.93,WNW,293,0.0,0.0,82,0.00,,,0.00,WUHU216HW,2013-09-25 07:21:00,
2013-09-25 03:26:00,48.6,43.3,29.93,WNW,293,0.0,0.0,82,0.00,,,0.00,WUHU216HW,2013-09-25 07:26:00,
2013-09-25 03:31:00,48.6,43.3,29.93,WNW,293,0.0,0.0,82,0.00,,,0.00,WUHU216HW,2013-09-25 07:31:00,
2013-09-25 03:36:00,48.6,43.3,29.93,WNW,293,0.0,0.0,82,0.00,,,0.00,WUHU216HW,2013-09-25 07:36:00,
2013-09-25 03:41:00,48.6,43.7,29.93,WNW,293,0.0,0.4,83,0.00,,,0.00,WUHU216HW,2013-09-25 07:41:00,
2013-09-25 03:46:00,48.6,43.7,29.93,WNW,293,0.0,0.4,83,0.00,,,0.00,WUHU216HW,2013-09-25 07:46:00,
2013-09-25 03:52:00,48.8,43.8,29.93,WNW,293,0.0,0.0,83,0.00,,,0.00,WUHU216HW,2013-09-25 07:52:00,
2013-09-25 03:56:00,49.0,44.0,29.93,WNW,293,0.4,0.4,83,0.00,,,0.00,WUHU216HW,2013-09-25 07:56:00,
2013-09-25 04:02:00,49.0,43.7,29.93,WNW,293,0.0,0.4,82,0.00,,,0.00,WUHU216HW,2013-09-25 08:02:00,
2013-09-25 04:07:00,49.0,43.7,29.93,WNW,293,0.0,0.0,82,0.00,,,0.00,WUHU216HW,2013-09-25 08:07:00,
2013-09-25 04:12:00,49.0,43.7,29.93,WNW,293,0.0,0.0,82,0.00,,,0.00,WUHU216HW,2013-09-25 08:12:00,
2013-09-25 04:16:00,48.6,43.3,29.93,WNW,293,0.0,0.0,82,0.00,,,0.00,WUHU216HW,2013-09-25 08:16:00,
2013-09-25 04:21:00,48.6,43.7,29.93,WNW,293,0.4,0.4,83,0.00,,,0.00,WUHU216HW,2013-09-25 08:21:00,
2013-09-25 04:26:00,48.2,43.3,29.93,WNW,293,0.4,0.4,83,0.00,,,0.00,WUHU216HW,2013-09-25 08:26:00,
2013-09-25 04:31:00,48.1,43.1,29.93,WNW,293,0.0,0.4,83,0.00,,,0.00,WUHU216HW,2013-09-25 08:31:00,
2013-09-25 04:36:00,47.9,42.9,29.93,WNW,293,0.0,0.2,83,0.00,,,0.00,WUHU216HW,2013-09-25 08:36:00,
2013-09-25 04:41:00,47.9,43.3,29.92,WNW,293,0.0,0.0,84,0.00,,,0.00,WUHU216HW,2013-09-25 08:41:00,
2013-09-25 04:46:00,47.9,42.9,29.93,WNW,293,0.0,0.0,83,0.00,,,0.00,WUHU216HW,2013-09-25 08:46:00,
2013-09-25 04:51:00,47.9,43.6,29.93,WNW,293,0.0,0.0,85,0.00,,,0.00,WUHU216HW,2013-09-25 08:51:00,
2013-09-25 04:56:00,47.7,43.1,29.92,WNW,293,0.0,0.0,84,0.00,,,0.00,WUHU216HW,2013-09-25 08:56:00,
2013-09-25 05:01:00,47.5,43.2,29.92,WNW,293,0.0,0.0,85,0.00,,,0.00,WUHU216HW,2013-09-25 09:01:00,
2013-09-25 05:06:00,47.5,43.2,29.92,WNW,293,0.0,0.0,85,0.00,,,0.00,WUHU216HW,2013-09-25 09:06:00,
2013-09-25 05:11:00,47.3,43.0,29.92,WNW,293,0.0,0.0,85,0.00,,,0.00,WUHU216HW,2013-09-25 09:11:00,
2013-09-25 05:16:00,47.3,43.0,29.92,WNW,293,0.0,0.0,85,0.00,,,0.00,WUHU216HW,2013-09-25 09:16:00,
2013-09-25 05:21:00,47.2,42.9,29.92,WNW,293,0.0,0.0,85,0.00,,,0.00,WUHU216HW,2013-09-25 09:21:00,
2013-09-25 05:26:00,47.2,42.9,29.92,WNW,293,0.0,0.0,85,0.00,,,0.00,WUHU216HW,2013-09-25 09:26:00,
2013-09-25 05:31:00,47.2,42.9,29.92,WNW,293,0.2,0.2,85,0.00,,,0.00,WUHU216HW,2013-09-25 09:31:00,
2013-09-25 05:36:00,47.2,42.9,29.92,WNW,293,0.0,0.2,85,0.00,,,0.00,WUHU216HW,2013-09-25 09:36:00,
2013-09-25 05:41:00,47.0,42.4,29.92,WNW,293,0.0,0.0,84,0.00,,,0.00,WUHU216HW,2013-09-25 09:41:00,
2013-09-25 05:46:00,47.0,42.8,29.92,WNW,293,0.0,0.0,85,0.00,,,0.00,WUHU216HW,2013-09-25 09:46:00,
2013-09-25 05:51:00,47.0,42.8,29.92,WNW,293,0.0,0.0,85,0.00,,,0.00,WUHU216HW,2013-09-25 09:51:00,
2013-09-25 05:56:00,46.8,42.8,29.92,WNW,293,0.0,0.0,86,0.00,,,0.00,WUHU216HW,2013-09-25 09:56:00,
2013-09-25 06:01:00,46.8,42.8,29.92,WNW,293,0.0,0.7,86,0.00,,,0.00,WUHU216HW,2013-09-25 10:01:00,
2013-09-25 06:06:00,46.8,42.6,29.92,WNW,293,0.0,0.7,85,0.00,,,0.00,WUHU216HW,2013-09-25 10:06:00,
2013-09-25 06:11:00,46.8,42.6,29.92,WNW,293,0.0,0.0,85,0.00,,,0.00,WUHU216HW,2013-09-25 10:11:00,
2013-09-25 06:16:00,46.8,42.8,29.92,WNW,293,0.0,0.0,86,0.00,,,0.00,WUHU216HW,2013-09-25 10:16:00,
2013-09-25 06:21:00,46.8,42.6,29.92,WNW,293,0.0,0.0,85,0.00,,,0.00,WUHU216HW,2013-09-25 10:21:00,
2013-09-25 06:26:00,46.8,42.6,29.92,WNW,293,0.0,0.0,85,0.00,,,0.00,WUHU216HW,2013-09-25 10:26:00,
2013-09-25 06:31:00,46.8,42.6,29.93,WNW,293,0.0,0.0,85,0.00,,,0.00,WUHU216HW,2013-09-25 10:31:00,
2013-09-25 06:36:00,46.6,42.4,29.92,WNW,293,0.0,0.0,85,0.00,,,0.00,WUHU216HW,2013-09-25 10:36:00,
2013-09-25 06:41:00,46.6,42.4,29.93,WNW,293,0.0,0.0,85,0.00,,,0.00,WUHU216HW,2013-09-25 10:41:00,
2013-09-25 06:46:00,46.6,42.4,29.93,WNW,293,0.0,0.0,85,0.00,,,0.00,WUHU216HW,2013-09-25 10:46:00,
2013-09-25 06:51:00,46.4,42.2,29.93,WNW,293,0.0,0.0,85,0.00,,,0.00,WUHU216HW,2013-09-25 10:51:00,
2013-09-25 06:56:00,46.4,42.2,29.93,WNW,293,0.0,0.0,85,0.00,,,0.00,WUHU216HW,2013-09-25 10:56:00,
2013-09-25 07:01:00,46.4,42.2,29.93,WNW,293,0.0,0.0,85,0.00,,,0.00,WUHU216HW,2013-09-25 11:01:00,
2013-09-25 07:06:00,46.4,42.5,29.93,WNW,293,0.0,0.0,86,0.00,,,0.00,WUHU216HW,2013-09-25 11:06:00,
2013-09-25 07:11:00,46.4,42.5,29.93,WNW,293,0.0,0.0,86,0.00,,,0.00,WUHU216HW,2013-09-25 11:11:00,
2013-09-25 07:16:00,46.4,42.9,29.93,WNW,293,0.0,0.0,87,0.00,,,0.00,WUHU216HW,2013-09-25 11:16:00,
2013-09-25 07:21:00,46.4,42.9,29.93,WNW,293,0.0,0.0,87,0.00,,,0.00,WUHU216HW,2013-09-25 11:21:00,
2013-09-25 07:26:00,46.4,42.5,29.93,WNW,293,0.0,0.0,86,0.00,,,0.00,WUHU216HW,2013-09-25 11:26:00,
2013-09-25 07:31:00,46.4,42.5,29.93,WNW,293,0.0,0.0,86,0.00,,,0.00,WUHU216HW,2013-09-25 11:31:00,
2013-09-25 07:36:00,46.6,42.7,29.93,WNW,293,0.0,0.0,86,0.00,,,0.00,WUHU216HW,2013-09-25 11:36:00,
2013-09-25 07:41:00,46.6,42.7,29.93,WNW,293,0.0,0.0,86,0.00,,,0.00,WUHU216HW,2013-09-25 11:41:00,
2013-09-25 07:46:00,46.8,42.6,29.93,WNW,293,0.0,0.0,85,0.00,,,0.00,WUHU216HW,2013-09-25 11:46:00,
2013-09-25 07:51:00,46.8,42.6,29.93,WNW,293,0.0,0.0,85,0.00,,,0.00,WUHU216HW,2013-09-25 11:51:00,
2013-09-25 07:57:00,47.2,42.9,29.93,WNW,293,0.0,0.0,85,0.00,,,0.00,WUHU216HW,2013-09-25 11:57:00,
2013-09-25 08:02:00,47.3,43.0,29.93,WNW,293,0.0,0.0,85,0.00,,,0.00,WUHU216HW,2013-09-25 12:02:00,
2013-09-25 08:07:00,47.5,43.2,29.93,WNW,293,0.0,0.0,85,0.00,,,0.00,WUHU216HW,2013-09-25 12:07:00,
2013-09-25 08:12:00,47.7,43.4,29.93,WNW,293,0.0,0.0,85,0.00,,,0.00,WUHU216HW,2013-09-25 12:12:00,
2013-09-25 08:17:00,47.9,43.6,29.93,WNW,293,0.0,0.0,85,0.00,,,0.00,WUHU216HW,2013-09-25 12:17:00,
2013-09-25 08:22:00,48.1,43.5,29.94,WNW,293,0.0,0.0,84,0.00,,,0.00,WUHU216HW,2013-09-25 12:22:00,
2013-09-25 08:27:00,48.2,43.6,29.94,WNW,293,0.0,0.0,84,0.00,,,0.00,WUHU216HW,2013-09-25 12:27:00,
2013-09-25 08:32:00,48.6,44.3,29.94,WNW,293,0.0,0.0,85,0.00,,,0.00,WUHU216HW,2013-09-25 12:32:00,
2013-09-25 08:37:00,49.1,44.8,29.94,WNW,293,0.0,0.0,85,0.00,,,0.00,WUHU216HW,2013-09-25 12:37:00,
2013-09-25 08:42:00,49.3,44.9,29.93,WNW,293,0.0,0.0,85,0.00,,,0.00,WUHU216HW,2013-09-25 12:42:00,
2013-09-25 08:47:00,49.5,44.8,29.94,WNW,293,0.0,0.0,84,0.00,,,0.00,WUHU216HW,2013-09-25 12:47:00,
2013-09-25 08:52:00,49.9,45.2,29.94,WNW,293,0.0,0.0,84,0.00,,,0.00,WUHU216HW,2013-09-25 12:52:00,
2013-09-25 08:57:00,49.9,45.2,29.94,WNW,293,0.0,0.0,84,0.00,,,0.00,WUHU216HW,2013-09-25 12:57:00,
2013-09-25 09:02:00,50.0,45.4,29.94,WNW,293,0.0,0.0,84,0.00,,,0.00,WUHU216HW,2013-09-25 13:02:00,
2013-09-25 09:07:00,50.4,45.7,29.94,WNW,293,0.0,0.0,84,0.00,,,0.00,WUHU216HW,2013-09-25 13:07:00,
2013-09-25 09:12:00,50.8,45.7,29.94,WNW,293,0.0,0.0,83,0.00,,,0.00,WUHU216HW,2013-09-25 13:12:00,
2013-09-25 09:17:00,50.9,46.3,29.94,WNW,293,0.4,0.7,84,0.00,,,0.00,WUHU216HW,2013-09-25 13:17:00,
2013-09-25 09:22:00,51.3,46.6,29.94,WNW,293,0.0,0.7,84,0.00,,,0.00,WUHU216HW,2013-09-25 13:22:00,
2013-09-25 09:27:00,51.8,47.2,29.94,WNW,293,0.0,0.2,84,0.00,,,0.00,WUHU216HW,2013-09-25 13:27:00,
2013-09-25 09:32:00,52.4,47.3,29.94,WNW,293,0.0,0.0,83,0.00,,,0.00,WUHU216HW,2013-09-25 13:32:00,
2013-09-25 09:37:00,53.1,48.1,29.94,WNW,293,0.2,0.7,83,0.00,,,0.00,WUHU216HW,2013-09-25 13:37:00,
2013-09-25 09:42:00,54.7,49.6,29.94,WNW,293,0.4,0.7,83,0.00,,,0.00,WUHU216HW,2013-09-25 13:42:00,
2013-09-25 09:47:00,56.2,50.7,29.94,WNW,293,0.0,0.4,82,0.00,,,0.00,WUHU216HW,2013-09-25 13:47:00,
2013-09-25 09:52:00,57.4,50.2,29.94,WNW,293,0.0,0.4,77,0.00,,,0.00,WUHU216HW,2013-09-25 13:52:00,
2013-09-25 09:57:00,59.2,50.6,29.94,NNW,338,0.4,1.1,73,0.00,,,0.00,WUHU216HW,2013-09-25 13:57:00,
2013-09-25 10:02:00,60.1,50.8,29.94,NNW,338,0.0,1.1,71,0.00,,,0.00,WUHU216HW,2013-09-25 14:02:00,
2013-09-25 10:07:00,61.2,51.0,29.93,NNW,338,0.0,1.1,69,0.00,,,0.00,WUHU216HW,2013-09-25 14:07:00,
2013-09-25 10:12:00,62.3,51.2,29.93,SW,225,0.7,1.8,67,0.00,,,0.00,WUHU216HW,2013-09-25 14:12:00,
2013-09-25 10:17:00,62.5,51.3,29.93,North,0,0.4,1.8,67,0.00,,,0.00,WUHU216HW,2013-09-25 14:17:00,
2013-09-25 10:22:00,63.0,52.3,29.93,SE,135,0.4,0.9,68,0.00,,,0.00,WUHU216HW,2013-09-25 14:22:00,
2013-09-25 10:27:00,63.4,51.8,29.93,East,90,0.0,1.1,66,0.00,,,0.00,WUHU216HW,2013-09-25 14:27:00,
2013-09-25 10:32:00,63.7,52.6,29.93,NNW,338,0.2,1.8,67,0.00,,,0.00,WUHU216HW,2013-09-25 14:32:00,
2013-09-25 10:37:00,63.9,52.3,29.93,NNW,338,1.1,1.8,66,0.00,,,0.00,WUHU216HW,2013-09-25 14:37:00,
2013-09-25 10:42:00,64.1,51.6,29.93,NNW,338,0.9,1.6,64,0.00,,,0.00,WUHU216HW,2013-09-25 14:42:00,
2013-09-25 10:47:00,64.6,53.0,29.93,NNW,338,0.4,1.6,66,0.00,,,0.00,WUHU216HW,2013-09-25 14:47:00,
2013-09-25 10:52:00,65.2,51.4,29.93,NNW,338,0.4,1.8,61,0.00,,,0.00,WUHU216HW,2013-09-25 14:52:00,
2013-09-25 10:57:00,65.0,50.3,29.93,NNW,338,1.1,1.8,59,0.00,,,0.00,WUHU216HW,2013-09-25 14:57:00,
2013-09-25 11:02:00,64.8,50.1,29.93,NNW,338,1.1,1.8,59,0.00,,,0.00,WUHU216HW,2013-09-25 15:02:00,
2013-09-25 11:07:00,64.8,51.0,29.93,NNW,338,0.4,1.1,61,0.00,,,0.00,WUHU216HW,2013-09-25 15:07:00,
2013-09-25 11:12:00,65.5,52.6,29.93,NNE,23,1.1,1.8,63,0.00,,,0.00,WUHU216HW,2013-09-25 15:12:00,
2013-09-25 11:17:00,66.2,52.5,29.93,SSW,203,0.0,1.8,61,0.00,,,0.00,WUHU216HW,2013-09-25 15:17:00,
2013-09-25 11:22:00,66.6,50.4,29.93,North,0,1.6,2.7,56,0.00,,,0.00,WUHU216HW,2013-09-25 15:22:00,
2013-09-25 11:27:00,66.6,48.4,29.93,North,0,0.9,2.7,52,0.00,,,0.00,WUHU216HW,2013-09-25 15:27:00,
2013-09-25 11:32:00,66.6,49.0,29.92,West,270,1.8,2.2,53,0.00,,,0.00,WUHU216HW,2013-09-25 15:32:00,
2013-09-25 11:37:00,67.0,49.8,29.92,NW,315,0.2,2.5,54,0.00,,,0.00,WUHU216HW,2013-09-25 15:37:00,
2013-09-25 11:42:00,67.7,50.9,29.92,West,270,1.6,2.5,55,0.00,,,0.00,WUHU216HW,2013-09-25 15:42:00,
2013-09-25 11:47:00,67.9,50.0,29.92,SSE,158,0.4,2.5,53,0.00,,,0.00,WUHU216HW,2013-09-25 15:47:00,
2013-09-25 11:52:00,67.7,50.0,29.92,West,270,1.1,2.7,53,0.00,,,0.00,WUHU216HW,2013-09-25 15:52:00,
2013-09-25 11:57:00,67.7,50.4,29.92,SE,135,1.8,2.7,54,0.00,,,0.00,WUHU216HW,2013-09-25 15:57:00,
2013-09-25 12:02:00,68.0,48.8,29.92,West,270,3.4,3.4,50,0.00,,,0.00,WUHU216HW,2013-09-25 16:02:00,
2013-09-25 12:07:00,68.0,49.2,29.92,West,270,0.9,3.4,51,0.00,,,0.00,WUHU216HW,2013-09-25 16:07:00,
2013-09-25 12:12:00,68.0,49.2,29.92,West,270,1.6,2.5,51,0.00,,,0.00,WUHU216HW,2013-09-25 16:12:00,
2013-09-25 12:17:00,67.9,48.6,29.92,NNW,338,1.3,2.5,50,0.00,,,0.00,WUHU216HW,2013-09-25 16:17:00,
2013-09-25 12:22:00,67.7,47.3,29.92,NNW,338,1.8,3.4,48,0.00,,,0.00,WUHU216HW,2013-09-25 16:22:00,
2013-09-25 12:27:00,67.7,49.0,29.92,NW,315,0.7,3.4,51,0.00,,,0.00,WUHU216HW,2013-09-25 16:27:00,
2013-09-25 12:32:00,67.7,49.0,29.92,WNW,293,1.1,1.8,51,0.00,,,0.00,WUHU216HW,2013-09-25 16:32:00,
2013-09-25 12:37:00,68.0,49.8,29.92,West,270,0.7,1.8,52,0.00,,,0.00,WUHU216HW,2013-09-25 16:37:00,
2013-09-25 12:42:00,68.8,50.4,29.92,WNW,293,1.8,2.2,52,0.00,,,0.00,WUHU216HW,2013-09-25 16:42:00,
2013-09-25 12:47:00,68.8,50.0,29.92,West,270,0.7,2.2,51,0.00,,,0.00,WUHU216HW,2013-09-25 16:47:00,
2013-09-25 12:52:00,68.8,48.2,29.92,NW,315,1.1,3.1,48,0.00,,,0.00,WUHU216HW,2013-09-25 16:52:00,
2013-09-25 12:57:00,68.6,49.2,29.92,WNW,293,0.4,3.1,50,0.00,,,0.00,WUHU216HW,2013-09-25 16:57:00,
2013-09-25 13:02:00,68.6,48.1,29.91,NNW,338,1.3,3.1,48,0.00,,,0.00,WUHU216HW,2013-09-25 17:02:00,
2013-09-25 13:07:00,68.8,50.0,29.91,ESE,113,0.7,1.8,51,0.00,,,0.00,WUHU216HW,2013-09-25 17:07:00,
2013-09-25 13:12:00,69.3,50.0,29.91,WNW,293,0.4,1.6,50,0.00,,,0.00,WUHU216HW,2013-09-25 17:12:00,
2013-09-25 13:16:00,69.5,50.6,29.91,NW,315,0.4,1.6,51,0.00,,,0.00,WUHU216HW,2013-09-25 17:16:00,
2013-09-25 13:22:00,69.7,50.8,29.91,NNW,338,1.8,4.3,51,0.00,,,0.00,WUHU216HW,2013-09-25 17:22:00,
2013-09-25 13:27:00,69.5,48.9,29.90,NNW,338,2.2,4.3,48,0.00,,,0.00,WUHU216HW,2013-09-25 17:27:00,
2013-09-25 13:32:00,69.3,50.0,29.90,West,270,1.8,3.1,50,0.00,,,0.00,WUHU216HW,2013-09-25 17:32:00,
2013-09-25 13:37:00,69.8,51.0,29.89,SE,135,0.2,3.1,51,0.00,,,0.00,WUHU216HW,2013-09-25 17:37:00,
2013-09-25 13:42:00,70.2,51.8,29.90,SSW,203,0.9,2.7,52,0.00,,,0.00,WUHU216HW,2013-09-25 17:42:00,
2013-09-25 13:47:00,70.4,51.4,29.89,South,180,0.7,2.7,51,0.00,,,0.00,WUHU216HW,2013-09-25 17:47:00,
2013-09-25 13:52:00,70.2,50.8,29.89,West,270,1.8,2.5,50,0.00,,,0.00,WUHU216HW,2013-09-25 17:52:00,
2013-09-25 13:57:00,70.2,50.8,29.89,West,270,0.0,2.5,50,0.00,,,0.00,WUHU216HW,2013-09-25 17:57:00,
2013-09-25 14:02:00,70.2,52.2,29.89,West,270,0.4,2.5,53,0.00,,,0.00,WUHU216HW,2013-09-25 18:02:00,
2013-09-25 14:07:00,70.6,51.6,29.89,WSW,248,0.7,1.1,51,0.00,,,0.00,WUHU216HW,2013-09-25 18:07:00,
2013-09-25 14:12:00,70.6,51.6,29.89,NW,315,1.8,1.8,51,0.00,,,0.00,WUHU216HW,2013-09-25 18:12:00,
2013-09-25 14:17:00,70.2,50.1,29.89,NNW,338,2.7,2.9,49,0.00,,,0.00,WUHU216HW,2013-09-25 18:17:00,
2013-09-25 14:22:00,70.2,50.8,29.89,NW,315,0.4,2.9,50,0.00,,,0.00,WUHU216HW,2013-09-25 18:22:00,
2013-09-25 14:27:00,70.2,52.2,29.88,South,180,0.9,1.8,53,0.00,,,0.00,WUHU216HW,2013-09-25 18:27:00,
2013-09-25 14:32:00,70.2,51.2,29.88,West,270,1.6,3.4,51,0.00,,,0.00,WUHU216HW,2013-09-25 18:32:00,
2013-09-25 14:37:00,70.0,50.6,29.88,NNW,338,1.1,3.4,50,0.00,,,0.00,WUHU216HW,2013-09-25 18:37:00,
2013-09-25 14:42:00,70.0,51.0,29.88,NW,315,1.8,2.2,51,0.00,,,0.00,WUHU216HW,2013-09-25 18:42:00,
2013-09-25 14:47:00,70.2,51.2,29.88,West,270,1.6,2.7,51,0.00,,,0.00,WUHU216HW,2013-09-25 18:47:00,
2013-09-25 14:52:00,70.6,52.0,29.88,NW,315,0.7,3.4,52,0.00,,,0.00,WUHU216HW,2013-09-25 18:52:00,
2013-09-25 14:57:00,70.7,52.2,29.88,West,270,0.7,3.4,52,0.00,,,0.00,WUHU216HW,2013-09-25 18:57:00,
2013-09-25 15:02:00,71.1,52.6,29.88,NW,315,0.4,2.5,52,0.00,,,0.00,WUHU216HW,2013-09-25 19:02:00,
2013-09-25 15:07:00,71.3,53.2,29.88,SE,135,0.4,2.5,53,0.00,,,0.00,WUHU216HW,2013-09-25 19:07:00,
2013-09-25 15:12:00,71.3,53.7,29.88,SE,135,0.2,2.2,54,0.00,,,0.00,WUHU216HW,2013-09-25 19:12:00,
2013-09-25 15:17:00,71.3,52.8,29.88,West,270,1.1,2.2,52,0.00,,,0.00,WUHU216HW,2013-09-25 19:17:00,
2013-09-25 15:22:00,71.5,52.8,29.88,South,180,0.4,1.8,52,0.00,,,0.00,WUHU216HW,2013-09-25 19:22:00,
2013-09-25 15:27:00,71.5,52.8,29.87,WSW,248,0.2,2.2,52,0.00,,,0.00,WUHU216HW,2013-09-25 19:27:00,
2013-09-25 15:32:00,71.5,52.8,29.87,WNW,293,0.4,2.2,52,0.00,,,0.00,WUHU216HW,2013-09-25 19:32:00,
2013-09-25 15:37:00,71.5,52.4,29.87,East,90,0.4,1.8,51,0.00,,,0.00,WUHU216HW,2013-09-25 19:37:00,
2013-09-25 15:42:00,71.3,52.2,29.87,WSW,248,1.1,2.0,51,0.00,,,0.00,WUHU216HW,2013-09-25 19:42:00,
2013-09-25 15:47:00,71.1,52.6,29.87,NW,315,1.6,2.9,52,0.00,,,0.00,WUHU216HW,2013-09-25 19:47:00,
2013-09-25 15:52:00,70.9,51.4,29.87,NNW,338,0.4,2.9,50,0.00,,,0.00,WUHU216HW,2013-09-25 19:52:00,
2013-09-25 15:57:00,70.9,51.4,29.87,NNW,338,0.7,2.2,50,0.00,,,0.00,WUHU216HW,2013-09-25 19:57:00,
2013-09-25 16:02:00,70.9,52.4,29.88,West,270,0.4,2.2,52,0.00,,,0.00,WUHU216HW,2013-09-25 20:02:00,
2013-09-25 16:07:00,71.1,52.6,29.88,West,270,1.3,2.5,52,0.00,,,0.00,WUHU216HW,2013-09-25 20:07:00,
2013-09-25 16:12:00,71.1,51.6,29.88,NNW,338,2.2,2.5,50,0.00,,,0.00,WUHU216HW,2013-09-25 20:12:00,
2013-09-25 16:17:00,70.9,51.8,29.88,WNW,293,1.1,2.2,51,0.00,,,0.00,WUHU216HW,2013-09-25 20:17:00,
2013-09-25 16:22:00,70.9,51.8,29.88,NNW,338,2.0,2.0,51,0.00,,,0.00,WUHU216HW,2013-09-25 20:22:00,
2013-09-25 16:27:00,70.9,51.8,29.87,WNW,293,1.6,2.0,51,0.00,,,0.00,WUHU216HW,2013-09-25 20:27:00,
2013-09-25 16:32:00,70.7,51.8,29.88,WNW,293,0.4,1.8,51,0.00,,,0.00,WUHU216HW,2013-09-25 20:32:00,
2013-09-25 16:37:00,70.7,51.8,29.87,West,270,0.9,2.2,51,0.00,,,0.00,WUHU216HW,2013-09-25 20:37:00,
2013-09-25 16:42:00,70.6,51.6,29.88,NNW,338,1.1,2.2,51,0.00,,,0.00,WUHU216HW,2013-09-25 20:42:00,
2013-09-25 16:47:00,70.6,52.0,29.87,WSW,248,0.2,2.2,52,0.00,,,0.00,WUHU216HW,2013-09-25 20:47:00,
2013-09-25 16:52:00,70.6,52.6,29.88,WNW,293,0.4,1.8,53,0.00,,,0.00,WUHU216HW,2013-09-25 20:52:00,
2013-09-25 16:57:00,70.6,52.6,29.87,WSW,248,1.1,2.5,53,0.00,,,0.00,WUHU216HW,2013-09-25 20:57:00,
2013-09-25 17:02:00,70.2,52.2,29.87,WNW,293,0.7,2.5,53,0.00,,,0.00,WUHU216HW,2013-09-25 21:02:00,
2013-09-25 17:07:00,70.2,52.2,29.87,NW,315,1.1,1.8,53,0.00,,,0.00,WUHU216HW,2013-09-25 21:07:00,
2013-09-25 17:12:00,70.0,51.6,29.87,NNW,338,0.7,1.1,52,0.00,,,0.00,WUHU216HW,2013-09-25 21:12:00,
2013-09-25 17:17:00,70.0,51.6,29.87,NNW,338,0.0,1.1,52,0.00,,,0.00,WUHU216HW,2013-09-25 21:17:00,
2013-09-25 17:22:00,69.8,51.4,29.88,NNW,338,1.8,2.2,52,0.00,,,0.00,WUHU216HW,2013-09-25 21:22:00,
2013-09-25 17:27:00,69.5,51.1,29.87,NNW,338,0.0,2.2,52,0.00,,,0.00,WUHU216HW,2013-09-25 21:27:00,
2013-09-25 17:32:00,69.5,51.6,29.88,NNW,338,0.0,2.0,53,0.00,,,0.00,WUHU216HW,2013-09-25 21:32:00,
2013-09-25 17:37:00,69.3,51.9,29.88,NNW,338,0.0,0.9,54,0.00,,,0.00,WUHU216HW,2013-09-25 21:37:00,
2013-09-25 17:42:00,69.1,51.8,29.88,NNW,338,0.4,0.4,54,0.00,,,0.00,WUHU216HW,2013-09-25 21:42:00,
2013-09-25 17:47:00,68.9,52.0,29.88,NNW,338,0.0,0.4,55,0.00,,,0.00,WUHU216HW,2013-09-25 21:47:00,
2013-09-25 17:52:00,68.4,52.0,29.88,NNW,338,0.0,0.4,56,0.00,,,0.00,WUHU216HW,2013-09-25 21:52:00,
2013-09-25 17:57:00,67.9,52.0,29.88,NNW,338,0.0,0.9,57,0.00,,,0.00,WUHU216HW,2013-09-25 21:57:00,
2013-09-25 18:02:00,67.3,53.0,29.88,NNW,338,0.0,0.9,60,0.00,,,0.00,WUHU216HW,2013-09-25 22:02:00,
2013-09-25 18:07:00,66.6,52.7,29.88,NNW,338,0.0,0.0,61,0.00,,,0.00,WUHU216HW,2013-09-25 22:07:00,
2013-09-25 18:12:00,66.1,53.1,29.89,NNW,338,0.0,0.0,63,0.00,,,0.00,WUHU216HW,2013-09-25 22:12:00,
2013-09-25 18:17:00,65.7,52.3,29.89,NNW,338,0.0,0.0,62,0.00,,,0.00,WUHU216HW,2013-09-25 22:17:00,
2013-09-25 18:22:00,65.7,52.8,29.89,NNW,338,0.0,0.0,63,0.00,,,0.00,WUHU216HW,2013-09-25 22:22:00,
2013-09-25 18:27:00,65.3,52.4,29.89,NNW,338,0.0,0.0,63,0.00,,,0.00,WUHU216HW,2013-09-25 22:27:00,
2013-09-25 18:32:00,65.2,52.2,29.89,NNW,338,0.0,0.0,63,0.00,,,0.00,WUHU216HW,2013-09-25 22:32:00,
2013-09-25 18:37:00,64.8,52.3,29.89,NNW,338,0.0,0.0,64,0.00,,,0.00,WUHU216HW,2013-09-25 22:37:00,
2013-09-25 18:42:00,64.4,52.8,29.89,NNW,338,0.0,0.4,66,0.00,,,0.00,WUHU216HW,2013-09-25 22:42:00,
2013-09-25 18:47:00,64.1,52.5,29.89,NNW,338,0.0,0.4,66,0.00,,,0.00,WUHU216HW,2013-09-25 22:47:00,
2013-09-25 18:52:00,63.9,52.3,29.89,NNW,338,0.0,0.0,66,0.00,,,0.00,WUHU216HW,2013-09-25 22:52:00,
2013-09-25 18:57:00,63.5,52.4,29.89,NNW,338,0.0,0.0,67,0.00,,,0.00,WUHU216HW,2013-09-25 22:57:00,
2013-09-25 19:02:00,63.2,52.0,29.89,NNW,338,0.0,0.0,67,0.00,,,0.00,WUHU216HW,2013-09-25 23:02:00,
2013-09-25 19:07:00,63.0,51.8,29.90,NNW,338,0.0,0.4,67,0.00,,,0.00,WUHU216HW,2013-09-25 23:07:00,
2013-09-25 19:12:00,62.8,51.7,29.90,NNW,338,0.0,0.4,67,0.00,,,0.00,WUHU216HW,2013-09-25 23:12:00,
2013-09-25 19:17:00,62.6,51.9,29.90,NNW,338,0.0,0.0,68,0.00,,,0.00,WUHU216HW,2013-09-25 23:17:00,
2013-09-25 19:22:00,62.3,51.6,29.90,NNW,338,0.0,0.0,68,0.00,,,0.00,WUHU216HW,2013-09-25 23:22:00,
2013-09-25 19:27:00,62.1,51.8,29.90,NNW,338,0.0,0.0,69,0.00,,,0.00,WUHU216HW,2013-09-25 23:27:00,
2013-09-25 19:32:00,61.7,51.5,29.90,NNW,338,0.0,0.0,69,0.00,,,0.00,WUHU216HW,2013-09-25 23:32:00,
2013-09-25 19:37:00,61.6,51.4,29.90,NNW,338,0.0,0.0,69,0.00,,,0.00,WUHU216HW,2013-09-25 23:37:00,
2013-09-25 19:42:00,61.2,52.6,29.90,NNW,338,0.0,0.0,73,0.00,,,0.00,WUHU216HW,2013-09-25 23:42:00,
2013-09-25 19:47:00,60.7,52.4,29.91,NNW,338,0.0,0.0,74,0.00,,,0.00,WUHU216HW,2013-09-25 23:47:00,
2013-09-25 19:52:00,60.1,52.6,29.91,NNW,338,0.0,0.0,76,0.00,,,0.00,WUHU216HW,2013-09-25 23:52:00,
2013-09-25 19:57:00,59.9,52.0,29.91,NNW,338,0.0,0.0,75,0.00,,,0.00,WUHU216HW,2013-09-25 23:57:00,
2013-09-25 20:02:00,59.8,51.8,29.91,NNW,338,0.0,0.0,75,0.00,,,0.00,WUHU216HW,2013-09-26 00:02:00,
2013-09-25 20:07:00,59.8,51.1,29.91,NNW,338,0.0,0.0,73,0.00,,,0.00,WUHU216HW,2013-09-26 00:07:00,
2013-09-25 20:12:00,59.6,50.9,29.91,NNW,338,0.0,0.0,73,0.00,,,0.00,WUHU216HW,2013-09-26 00:12:00,
2013-09-25 20:17:00,59.6,50.9,29.91,NNW,338,0.0,0.0,73,0.00,,,0.00,WUHU216HW,2013-09-26 00:17:00,
2013-09-25 20:22:00,59.4,50.8,29.92,NNW,338,0.0,0.0,73,0.00,,,0.00,WUHU216HW,2013-09-26 00:22:00,
2013-09-25 20:27:00,59.4,50.8,29.92,NNW,338,0.0,0.0,73,0.00,,,0.00,WUHU216HW,2013-09-26 00:27:00,
2013-09-25 20:32:00,59.2,50.6,29.92,NNW,338,0.0,0.0,73,0.00,,,0.00,WUHU216HW,2013-09-26 00:32:00,
2013-09-25 20:37:00,59.0,51.8,29.92,NNW,338,0.0,0.0,77,0.00,,,0.00,WUHU216HW,2013-09-26 00:37:00,
2013-09-25 20:42:00,58.5,51.7,29.92,NNW,338,0.0,0.0,78,0.00,,,0.00,WUHU216HW,2013-09-26 00:42:00,
2013-09-25 20:47:00,58.1,51.3,29.92,NNW,338,0.0,0.0,78,0.00,,,0.00,WUHU216HW,2013-09-26 00:47:00,
2013-09-25 20:52:00,58.0,51.1,29.92,NNW,338,0.0,0.0,78,0.00,,,0.00,WUHU216HW,2013-09-26 00:52:00,
2013-09-25 20:57:00,58.0,51.1,29.92,NNW,338,0.0,0.0,78,0.00,,,0.00,WUHU216HW,2013-09-26 00:57:00,
2013-09-25 21:02:00,58.0,50.8,29.92,NNW,338,0.0,0.0,77,0.00,,,0.00,WUHU216HW,2013-09-26 01:02:00,
2013-09-25 21:07:00,58.0,50.8,29.92,NNW,338,0.0,0.0,77,0.00,,,0.00,WUHU216HW,2013-09-26 01:07:00,
2013-09-25 21:12:00,58.0,50.8,29.92,NNW,338,0.0,0.0,77,0.00,,,0.00,WUHU216HW,2013-09-26 01:12:00,
2013-09-25 21:17:00,58.0,50.8,29.93,NNW,338,0.0,0.0,77,0.00,,,0.00,WUHU216HW,2013-09-26 01:17:00,
2013-09-25 21:22:00,58.0,51.5,29.92,NNW,338,0.0,0.0,79,0.00,,,0.00,WUHU216HW,2013-09-26 01:22:00,
2013-09-25 21:27:00,57.8,50.9,29.93,NNW,338,0.0,0.0,78,0.00,,,0.00,WUHU216HW,2013-09-26 01:27:00,
2013-09-25 21:32:00,57.6,50.8,29.93,NNW,338,0.0,0.0,78,0.00,,,0.00,WUHU216HW,2013-09-26 01:32:00,
2013-09-25 21:37:00,57.8,50.9,29.93,NNW,338,0.0,0.0,78,0.00,,,0.00,WUHU216HW,2013-09-26 01:37:00,
2013-09-25 21:42:00,57.8,50.9,29.93,NNW,338,0.0,0.0,78,0.00,,,0.00,WUHU216HW,2013-09-26 01:42:00,
2013-09-25 21:47:00,57.8,50.9,29.93,NNW,338,0.0,0.0,78,0.00,,,0.00,WUHU216HW,2013-09-26 01:47:00,
2013-09-25 21:52:00,57.8,50.6,29.93,NNW,338,0.0,0.0,77,0.00,,,0.00,WUHU216HW,2013-09-26 01:52:00,
2013-09-25 21:57:00,57.8,50.9,29.94,NNW,338,0.0,0.0,78,0.00,,,0.00,WUHU216HW,2013-09-26 01:57:00,
2013-09-25 22:02:00,57.8,50.9,29.94,NNW,338,0.0,0.0,78,0.00,,,0.00,WUHU216HW,2013-09-26 02:02:00,
2013-09-25 22:07:00,57.6,51.1,29.94,NNW,338,0.4,0.4,79,0.00,,,0.00,WUHU216HW,2013-09-26 02:07:00,
2013-09-25 22:12:00,57.4,51.7,29.94,NNW,338,0.4,0.9,81,0.00,,,0.00,WUHU216HW,2013-09-26 02:12:00,
2013-09-25 22:18:00,57.4,51.7,29.94,NNW,338,0.7,0.9,81,0.00,,,0.00,WUHU216HW,2013-09-26 02:18:00,
2013-09-25 22:23:00,57.4,51.3,29.94,NNW,338,0.0,0.7,80,0.00,,,0.00,WUHU216HW,2013-09-26 02:23:00,
2013-09-25 22:28:00,57.6,51.9,29.94,NNW,338,0.0,0.9,81,0.00,,,0.00,WUHU216HW,2013-09-26 02:28:00,
2013-09-25 22:33:00,57.6,51.9,29.95,NNW,338,1.6,1.6,81,0.00,,,0.00,WUHU216HW,2013-09-26 02:33:00,
2013-09-25 22:38:00,57.6,51.9,29.95,NNW,338,0.4,1.6,81,0.00,,,0.00,WUHU216HW,2013-09-26 02:38:00,
2013-09-25 22:43:00,57.6,51.9,29.94,NNW,338,0.9,1.1,81,0.00,,,0.00,WUHU216HW,2013-09-26 02:43:00,
2013-09-25 22:47:00,57.6,51.9,29.94,NNW,338,0.4,1.1,81,0.00,,,0.00,WUHU216HW,2013-09-26 02:47:00,
2013-09-25 22:52:00,57.8,52.0,29.95,NNW,338,0.9,0.9,81,0.00,,,0.00,WUHU216HW,2013-09-26 02:52:00,
2013-09-25 22:57:00,57.8,52.0,29.95,NNW,338,0.0,0.9,81,0.00,,,0.00,WUHU216HW,2013-09-26 02:57:00,
2013-09-25 23:02:00,57.8,52.0,29.95,NNW,338,0.4,0.7,81,0.00,,,0.00,WUHU216HW,2013-09-26 03:02:00,
2013-09-25 23:07:00,57.8,52.0,29.95,NNW,338,0.0,0.7,81,0.00,,,0.00,WUHU216HW,2013-09-26 03:07:00,
2013-09-25 23:12:00,58.0,52.2,29.95,NNW,338,0.4,0.7,81,0.00,,,0.00,WUHU216HW,2013-09-26 03:12:00,
2013-09-25 23:17:00,58.0,52.2,29.95,NNW,338,0.0,1.6,81,0.00,,,0.00,WUHU216HW,2013-09-26 03:17:00,
2013-09-25 23:22:00,58.0,52.2,29.96,NW,315,0.2,1.6,81,0.00,,,0.00,WUHU216HW,2013-09-26 03:22:00,
2013-09-25 23:27:00,58.1,52.4,29.96,NNW,338,0.0,1.3,81,0.00,,,0.00,WUHU216HW,2013-09-26 03:27:00,
2013-09-25 23:32:00,58.1,52.4,29.96,NNW,338,0.4,1.1,81,0.00,,,0.00,WUHU216HW,2013-09-26 03:32:00,
2013-09-25 23:37:00,58.1,52.4,29.96,NW,315,0.7,0.7,81,0.00,,,0.00,WUHU216HW,2013-09-26 03:37:00,
2013-09-25 23:42:00,58.1,52.7,29.96,NNW,338,0.0,1.6,82,0.00,,,0.00,WUHU216HW,2013-09-26 03:42:00,
2013-09-25 23:48:00,58.1,52.4,29.97,NNW,338,0.7,1.6,81,0.00,,,0.00,WUHU216HW,2013-09-26 03:48:00,
2013-09-25 23:52:00,58.1,52.7,29.97,NNW,338,0.4,0.7,82,0.00,,,0.00,WUHU216HW,2013-09-26 03:52:00,
2013-09-25 23:57:00,58.1,52.4,29.97,NNW,338,0.4,0.7,81,0.00,,,0.00,WUHU216HW,2013-09-26 03:57:00,